sat.trackr.live / text

‹ back to catalog

AIGLONSAT-1

NORAD 68437 · 2026-067X

PAYLOAD ACTIVE UNKNOWN

§ Identity

Operator
Country
SWTZ
Launch date
2026-03-30
Launch site
AFWTR
Launch vehicle
Mass (kg)
RCS (m²)

External: N2YO · Heavens-Above · Gunter

§ Orbital elements

Epoch: 2026-09-19T08:00:18.867744Z

Period
94.61 min
Inclination
97.4600°
Eccentricity
0.0004922
Mean motion
15.21980786 rev/d
Perigee alt
496.5 km
Apogee alt
503.3 km
Semi-major
6,878.0 km
B*
5.0670e-4
RAAN
219.8206°
Arg perigee
82.9640°
Mean anomaly
277.2156°
Rev number
2,625

§ Raw data

AIGLONSAT-11 68437U 26067X   26262.33355171  .00011505  00000+0  50670-3 0  99972 68437  97.4600 219.8206 0004922  82.9640 277.2156 15.21980786 26252

JSON: /api/v1/satellites/68437 · /tle

For live sub-satellite position, see the globe view (requires WebGL).

§ Visibility from observer

Set your observer location to see the next 7 days of passes ≥ 10°. The values pass through the URL so the page stays shareable.

No JS? Fill the form by hand. The geolocation button needs JavaScript.